STARLINK-11503, 63142

Orbit data source: Space-Track

STARLINK-11503, 63142 is a payload satellite owned by SpaceX/Seattle (US) in LEO that was launched on Mon, 03 Mar 2025 UTC via an FALCON 9 launch vehicle from the Air Force Eastern Test Range (AFETR). Payload-class satellites include a variety of spacecraft equipped with specific instruments for various scientific and technological missions. These include communications satellites like Starlink; space stations such as the ISS; scientific satellites like the Hubble; Earth observation satellites from companies like Planet Labs, Umbra, and HawkEye 360; GPS; miniature CubeSats for education and research; and military/defense satellites.

Loading next visibility...
Identifier
63142, 2025-043L
Orbit
LEO
Country
Flag of USUS
Related business
Manufacturer
SpaceX/Seattle
Mission
Operational Commercial Communications
Bus & Motor
STARLINK V2MD, Unknown motor
Mass
960 kg wet, ~910 kg dry
Launch date (UTC)
2025-03-03 (11 months ago)
Launch vehicle
FALCON 9
Launch site
Air Force Eastern Test Range (AFETR)
Object type
Payload
Rocket body
Debris
Shape & HBR
Box + 2 Pan, 18.1 m
Radar Cross Section
36.964 m², Large (>1 m²)

Expand to show TLE details & history
Last TLE update: 6 hours ago

TLE from 6 hours ago
0 STARLINK-11503
1 63142U 25043L   26037.13264756  .00349038  00000-0  25908-2 0  9995
2 63142  42.9993  80.5148 0004287 221.9465 138.1074 15.71021758 54336
Epoch: 2026-02-06T03:11Z
TLE epoch observation values (Epoch: 2026-02-06T03:11:00.749Z)
Latitude
-0.00005°
Longitude
-103.51329°
Altitude
357.896 km
Speed
7.695 km/s
True Right ascension
05h 22m 03s
True Declination
0° 00' 00"
Sunlit
Object was in full shadow at epoch
Visualization orbit readout
Latitude
Unknown
Longitude
Unknown
Altitude
Unknown
Speed
Unknown
Apparent Right ascension
Unknown
Apparent Declination
Unknown
Sunlit
N/A
Visualization observer readout
Local Sidereal Time
11:35:27
Azimuth
Unknown
Elevation
Unknown
Doppler factor
Unknown
Orbital elements
Apogee altitude
360.845 km
Perigee altitude
355.07 km
Semi-major axis
6,736.094 km
Eccentricity
0.00043
Inclination
42.9993°
RAAN
80.5148°
Arg. of periapsis
221.9465°
True anomaly
138.14019°
Mean anomaly
138.1074°
Eccentric anomaly
138.1238°
Mean motion
3.92582 °/min
Orbital period
91.7 mins
BSTAR
0.0025908
Loading maneuver chart data...
Computing Atmospheric mass density...
Loading historical data...
Loading historical data...
Loading historical data...
Loading historical data...
Loading historical data...
Loading historical data...
Loading historical data...

Documentation

Showing up to 5 results
|